Weather History for Phoenix Deer Valley, AZ

Change the Weather History Date:

Friday, September 13, 2013

  Actual Average Record
Temperature  
Mean Temperature 87 °F -  
Max Temperature 97 °F 96 °F 106 °F (2000)
Min Temperature 77 °F 75 °F 70 °F (2005)
Cooling Degree Days 22    
Growing Degree Days 37 (Base 50)    
Moisture  
Dew Point 58 °F    
Average Humidity 38    
Maximum Humidity 56    
Minimum Humidity 23    
Precipitation  
Precipitation 0.00 in - - ()
Sea Level Pressure  
Sea Level Pressure 29.63 in    
Wind  
Wind Speed 5 mph (NNE)    
Max Wind Speed 9 mph    
Max Gust Speed -    
Visibility 10 miles    
Events      
Averages and records for this station are not official NWS values.
T = Trace of Precipitation, MM = Missing Value Source: NWS Daily Summary

Daily Weather History Graph

Daily Weather History Graph

Search for Another Location

Airport:

Trip Planner

Search our weather history database for the weather conditions in past years. The results will help you decide how hot, cold, wet, or windy it might be!

Date:

Astronomy

Sep. 13, 2013 Rise Set
Actual Time 6:10 AM MST 6:37 PM MST
Civil Twilight 5:45 AM MST 7:02 PM MST
Nautical Twilight 5:16 AM MST 7:31 PM MST
Astronomical Twilight 4:46 AM MST 8:01 PM MST
Moon 2:18 PM MST (9/13) No Moon Set
Length of Visible Light 13h 16m
Length of Day
12h 26m
Waxing Gibbous, 62% of the Moon is Illuminated
Sep 13
Waxing Gibbous
Sep 19
Full
Sep 26
Last Quarter
Oct 4
New
Oct 11
First Quarter

Hourly Weather History & Observations

Time (MST) Temp. Heat Index Dew Point Humidity Pressure Visibility Wind Dir Wind Speed Gust Speed Precip Events Conditions
12:53 AM 82.0 °F 81.2 °F 53.1 °F 37% 29.70 in 10.0 mi ENE 6.9 mph - N/A   Mostly Cloudy
1:53 AM 81.0 °F 80.5 °F 54.0 °F 39% 29.69 in 10.0 mi NE 4.6 mph - N/A   Partly Cloudy
2:53 AM 79.0 °F - 54.0 °F 42% 29.69 in 10.0 mi NNE 6.9 mph - N/A   Clear
3:53 AM 79.0 °F - 54.0 °F 42% 29.68 in 10.0 mi NNE 5.8 mph - N/A   Partly Cloudy
4:53 AM 78.1 °F - 57.0 °F 48% 29.68 in 10.0 mi ENE 3.5 mph - N/A   Mostly Cloudy
5:53 AM 79.0 °F - 57.9 °F 48% 29.68 in 10.0 mi ENE 4.6 mph - N/A   Clear
6:53 AM 77.0 °F - 60.1 °F 56% 29.70 in 10.0 mi NNW 3.5 mph - N/A   Clear
7:53 AM 82.0 °F 82.1 °F 59.0 °F 45% 29.70 in 10.0 mi North 3.5 mph - N/A   Clear
8:53 AM 87.1 °F 86.5 °F 59.0 °F 39% 29.71 in 10.0 mi Calm Calm - N/A   Clear
9:53 AM 90.0 °F 90.0 °F 61.0 °F 38% 29.70 in 10.0 mi East 6.9 mph - N/A   Clear
10:53 AM 91.9 °F 92.5 °F 62.1 °F 37% 29.68 in 10.0 mi ESE 6.9 mph - N/A   Clear
11:53 AM 93.0 °F 93.0 °F 61.0 °F 34% 29.66 in 10.0 mi Calm Calm - N/A   Clear
12:53 PM 93.0 °F 93.0 °F 61.0 °F 34% 29.63 in 10.0 mi Calm Calm - N/A   Clear
1:53 PM 95.0 °F 95.6 °F 62.1 °F 33% 29.60 in 10.0 mi WSW 5.8 mph - N/A   Clear
2:53 PM 96.1 °F 95.6 °F 59.0 °F 29% 29.57 in 10.0 mi Variable 4.6 mph - N/A   Clear
3:53 PM 97.0 °F 96.1 °F 57.9 °F 27% 29.55 in 10.0 mi WNW 9.2 mph - N/A   Clear
4:53 PM 97.0 °F 95.3 °F 55.9 °F 25% 29.55 in 10.0 mi NNW 5.8 mph - N/A   Clear
5:53 PM 96.1 °F 93.5 °F 53.1 °F 23% 29.54 in 10.0 mi NNW 5.8 mph - N/A   Clear
6:53 PM 93.0 °F 91.1 °F 55.0 °F 28% 29.55 in 10.0 mi NNW 3.5 mph - N/A   Clear
7:53 PM 91.0 °F 89.7 °F 57.0 °F 32% 29.57 in 10.0 mi Calm Calm - N/A   Clear
8:34 PM 87.8 °F 87.6 °F 60.8 °F 40% 29.65 in 10.0 mi Calm Calm - N/A   Clear
8:53 PM 87.1 °F 87.8 °F 63.0 °F 44% 29.58 in 10.0 mi Calm Calm - N/A   Clear
9:53 PM 86.0 °F 86.1 °F 61.0 °F 43% 29.59 in 10.0 mi NNE 4.6 mph - N/A   Clear
9:58 PM 87.8 °F 87.6 °F 60.8 °F 40% 29.67 in 10.0 mi NNE 4.6 mph - N/A   Clear
10:53 PM 88.0 °F 86.9 °F 57.9 °F 36% 29.59 in 10.0 mi ENE 6.9 mph - N/A   Clear
11:53 PM 86.0 °F 85.0 °F 57.9 °F 38% 29.59 in 10.0 mi East 5.8 mph - N/A   Clear